Flag for U.S.A. Weather past 2 weeks in Cape Coral, Florida, U.S.A.

Now
82 °F

Passing clouds.


Feels Like: 84 °F
Forecast: 65 / 83 °F
Wind: 8 mph from South

Location: Page Field

Current Time: Mar 4, 2015 at 12:38:27 PM

Latest Report: Mar 4, 2015 at 11:53 AM


Visibility: 10 mi

Pressure: 30.14 "Hg

Humidity: 56%

Dew point: 65 °F

Location of Cape CoralLocation

Historic Weather in Cape Coral — Graph

°F

Cape Coral temperature yesterday

Maximum temperature yesterday: 86 °F (at 2:53 PM)
Minimum temperature yesterday: 63 °F (at 4:53 AM)
Average temperature yesterday: 73 °F

Past Weeks' High & Low Weather Summary

 TemperatureHumidityPressure
High86 °F (Mar 3, 2:53 PM)100% (Feb 23, 3:53 AM)30.39 "Hg (Feb 23, 3:53 AM)
Low35 °F (Feb 20, 6:53 AM)12% (Feb 20, 12:53 PM)29.76 "Hg (Feb 26, 5:04 AM)
Average66 °F76%30.14 "Hg
* Reported Feb 17 10:53 AM — Mar 4 10:53 AM, Cape Coral, Weather by CustomWeather, © 2015

Note: Actual official high and low records may vary slightly from our data, if they occured in-between our weather recording intervals... More about our weather records

Advertising

Cape Coral weather history for previous 24 hours

 ConditionsComfort  
Time TempWeatherWind HumidityBarometerVisibility
10:53 AM
Wed, Mar 4
81 °FPassing clouds.13 mph60%30.15 "Hg10 mi
9:53 AM77 °FPassing clouds.10 mph74%30.16 "Hg10 mi
8:53 AM73 °FSunny.9 mph84%30.16 "Hg10 mi
7:53 AM68 °FSunny.5 mph96%30.14 "Hg10 mi
6:53 AM65 °FFog.No wind97%30.12 "Hg6 mi
5:53 AM65 °FClear.No wind100%30.11 "Hg8 mi
4:53 AM66 °FClear.No wind96%30.09 "Hg10 mi
3:53 AM66 °FClear.3 mph96%30.08 "Hg10 mi
2:53 AM67 °FClear.7 mph97%30.09 "Hg10 mi
1:53 AM67 °FClear.8 mph93%30.10 "Hg10 mi
12:53 AM67 °FClear.5 mph90%30.12 "Hg10 mi
11:53 PM
Tue, Mar 3
67 °FClear.6 mph90%30.14 "Hg10 mi
10:53 PM69 °FClear.6 mph81%30.15 "Hg10 mi
9:53 PM69 °FClear.5 mph81%30.15 "Hg10 mi
8:53 PM71 °FClear.No wind81%30.14 "Hg10 mi
7:53 PM73 °FClear.No wind76%30.13 "Hg10 mi
6:53 PM75 °FClear.6 mph69%30.11 "Hg10 mi
5:53 PM81 °FPassing clouds.9 mph49%30.09 "Hg10 mi
4:53 PM82 °FPassing clouds.10 mph53%30.09 "Hg10 mi
3:53 PM85 °FSunny.13 mph45%30.08 "Hg10 mi
2:53 PM86 °FSunny.17 mph43%30.09 "Hg10 mi
1:53 PM83 °FScattered clouds.12 mph50%30.12 "Hg10 mi
12:53 PM83 °FPartly sunny.13 mph51%30.16 "Hg10 mi
Weather by CustomWeather, © 2015

See weather overviewHow to use our weather pages